Sigfox identifier Datetime Temperature Humidity SNR
002F8EA8 2019-04-23 15:09:00 16.5 32 20.4
002F8EA8 2019-04-23 14:34:02 16.5 32 20.3
002F8EA8 2019-04-23 13:59:03 16.3 32 20.1
002F8EA8 2019-04-23 13:24:04 16.3 32 20
002F8EA8 2019-04-23 12:49:06 16.3 32 19.7
002F8EA8 2019-04-23 12:14:07 16.3 32 18.9
002F8EA8 2019-04-23 11:39:08 16 32 18.8
002F8EA8 2019-04-23 11:04:11 16 32 18.4
002F8EA8 2019-04-23 10:29:12 16 32 17.7
002F8EA8 2019-04-23 09:54:15 16 32 17
002F8EA8 2019-04-23 09:19:16 16 32 15.7
002F8EA8 2019-04-23 08:44:18 16 32 14.7
002F8EA8 2019-04-23 08:09:19 16 32 12.7
002F8EA8 2019-04-23 07:34:20 16 32 12.6
002F8EA8 2019-04-23 06:59:21 16 32 12.9
002F8EA8 2019-04-23 06:24:22 16 32 12.9
002F8EA8 2019-04-23 05:49:24 15.9 32 13
002F8EA8 2019-04-23 05:14:26 15.9 32 12.9
002F8EA8 2019-04-23 04:39:28 15.9 32 13.1
002F8EA8 2019-04-23 04:04:31 16 32 13.2
002F8EA8 2019-04-23 03:29:33 15.9 31 13.4
002F8EA8 2019-04-23 02:54:35 16 31 13.6
002F8EA8 2019-04-23 02:19:37 16 31 13.6
002F8EA8 2019-04-23 01:44:39 16 31 14.1
002F8EA8 2019-04-23 01:09:45 16 31 14.4
002F8EA8 2019-04-23 00:34:43 16 31 14.6
002F8EA8 2019-04-22 23:59:45 16 31 14.7
002F8EA8 2019-04-22 23:24:47 16 31 14.7
002F8EA8 2019-04-22 22:49:48 16 31 14.7
002F8EA8 2019-04-22 22:14:49 16.1 31 14.6
002F8EA8 2019-04-22 21:39:51 16.1 31 14.6
002F8EA8 2019-04-22 21:04:51 16.2 31 14.5
002F8EA8 2019-04-22 20:29:52 16.3 31 14.6
002F8EA8 2019-04-22 19:54:53 16.3 31 14.7
002F8EA8 2019-04-22 19:19:54 16.3 31 14.8
002F8EA8 2019-04-22 18:44:55 16.3 31 14.8
002F8EA8 2019-04-22 18:09:56 16.3 31 14.9
002F8EA8 2019-04-22 17:34:58 16.3 31 15
002F8EA8 2019-04-22 16:59:59 16.3 31 15.2
002F8EA8 2019-04-22 16:25:01 16.2 31 15.2
002F8EA8 2019-04-22 15:50:03 16.1 31 15.3
002F8EA8 2019-04-22 15:15:06 16.1 31 15.3
002F8EA8 2019-04-22 14:40:11 16.1 31 15.4
002F8EA8 2019-04-22 14:05:11 16 31 15.4
002F8EA8 2019-04-22 13:30:15 16 31 15.4
002F8EA8 2019-04-22 12:55:17 16 31 15.2
002F8EA8 2019-04-22 12:20:18 16 31 15.2
002F8EA8 2019-04-22 11:45:20 16 31 15.3
002F8EA8 2019-04-22 11:10:22 16 31 15.2
002F8EA8 2019-04-22 10:35:25 16 31 15
002F8EA8 2019-04-22 10:00:27 16 31 14.8
002F8EA8 2019-04-22 09:25:30 16 31 14.8
002F8EA8 2019-04-22 08:50:31 16 31 14.8
002F8EA8 2019-04-22 08:15:34 16 31 14.8
002F8EA8 2019-04-22 07:40:36 16 31 14.9
002F8EA8 2019-04-22 07:05:38 16 31 14.8
002F8EA8 2019-04-22 06:30:39 16 31 14.7
002F8EA8 2019-04-22 05:55:41 16 31 14.6
002F8EA8 2019-04-22 05:20:42 16 31 14.6
002F8EA8 2019-04-22 04:45:42 15.9 31 14.6
002F8EA8 2019-04-22 04:10:43 15.9 31 14.6
002F8EA8 2019-04-22 03:35:44 15.9 31 14.5
002F8EA8 2019-04-22 03:00:46 15.9 31 14.5
002F8EA8 2019-04-22 02:25:48 15.8 31 14.3
002F8EA8 2019-04-22 01:50:48 15.8 31 14.3
002F8EA8 2019-04-22 01:15:50 15.8 31 14.3
002F8EA8 2019-04-22 00:40:52 15.8 30 14.2
002F8EA8 2019-04-22 00:05:51 15.8 30 14.1
002F8EA8 2019-04-21 23:30:52 15.8 30 14.3
002F8EA8 2019-04-21 22:55:52 15.8 30 15.1
002F8EA8 2019-04-21 22:20:54 15.8 30 15
002F8EA8 2019-04-21 21:45:56 15.8 30 15.1
002F8EA8 2019-04-21 21:10:57 15.8 30 15.2
002F8EA8 2019-04-21 20:35:58 15.8 30 15.3
002F8EA8 2019-04-21 20:01:00 15.8 30 15.4
002F8EA8 2019-04-21 19:26:00 15.8 30 15.5
002F8EA8 2019-04-21 18:51:01 15.8 30 15.6
002F8EA8 2019-04-21 18:16:02 15.8 30 15.7
002F8EA8 2019-04-21 17:41:05 15.8 30 15.9
002F8EA8 2019-04-21 17:06:06 15.8 30 15.9
002F8EA8 2019-04-21 16:31:09 15.8 30 15.9
002F8EA8 2019-04-21 15:56:11 15.7 30 16
002F8EA8 2019-04-21 15:21:13 15.8 30 16.1
002F8EA8 2019-04-21 14:46:17 15.8 30 16.1
002F8EA8 2019-04-21 14:11:18 15.8 30 16
002F8EA8 2019-04-21 13:36:20 15.8 30 16.1
002F8EA8 2019-04-21 13:01:25 15.8 30 16.1
002F8EA8 2019-04-21 12:26:28 15.8 30 16
002F8EA8 2019-04-21 11:51:29 15.8 30 16
002F8EA8 2019-04-21 11:16:31 15.8 30 15.9
002F8EA8 2019-04-21 10:41:33 15.8 30 15.7
002F8EA8 2019-04-21 10:06:35 15.9 30 15.7
002F8EA8 2019-04-21 09:31:38 16 30 15.6
002F8EA8 2019-04-21 08:56:40 16 30 15.4
002F8EA8 2019-04-21 07:46:43 16 30 14.5
002F8EA8 2019-04-21 07:11:45 16 30 14.5
002F8EA8 2019-04-21 06:36:47 16 30 14.1
002F8EA8 2019-04-21 06:01:50 16 30 13.7
002F8EA8 2019-04-21 05:26:52 16 30 13.4
002F8EA8 2019-04-21 04:51:55 15.9 30 13.2
002F8EA8 2019-04-21 04:16:57 15.9 30 12.9
002F8EA8 2019-04-21 03:41:59 15.9 30 12.8
002F8EA8 2019-04-21 03:07:02 15.9 30 12.6
002F8EA8 2019-04-21 02:32:04 15.9 30 12.3
002F8EA8 2019-04-21 01:57:09 15.9 29 12.3
002F8EA8 2019-04-21 01:22:09 15.8 29 12.5
002F8EA8 2019-04-21 00:47:12 15.8 29 12.6
002F8EA8 2019-04-21 00:12:14 15.8 29 12.3
002F8EA8 2019-04-20 23:37:19 15.8 29 12.1
002F8EA8 2019-04-20 23:02:20 15.8 29 12.1
002F8EA8 2019-04-20 22:27:23 15.8 29 12.2
002F8EA8 2019-04-20 21:52:28 15.8 29 12.3
002F8EA8 2019-04-20 21:17:30 15.8 29 12.6
002F8EA8 2019-04-20 20:42:31 15.9 29 12.6
002F8EA8 2019-04-20 20:07:34 15.8 29 12.7
002F8EA8 2019-04-20 19:32:37 15.8 29 12.8
002F8EA8 2019-04-20 18:57:40 15.9 29 12.9
002F8EA8 2019-04-20 18:22:42 15.9 29 13.2
002F8EA8 2019-04-20 17:47:44 15.8 29 13.2
002F8EA8 2019-04-20 17:12:50 15.8 29 13.2
002F8EA8 2019-04-20 15:27:54 15.8 29 13.2
002F8EA8 2019-04-20 14:18:02 15.8 29 17.8
002F8EA8 2019-04-20 13:43:04 15.8 29 17.8
002F8EA8 2019-04-20 13:08:10 15.8 29 20
002F8EA8 2019-04-20 12:33:10 15.9 29 20
002F8EA8 2019-04-20 11:58:14 16 29 20
002F8EA8 2019-04-20 11:23:16 16 29 20
002F8EA8 2019-04-20 10:48:19 16 29 19.9
002F8EA8 2019-04-20 10:13:21 16 29 19.9
002F8EA8 2019-04-20 09:38:23 16 29 19.9
002F8EA8 2019-04-20 09:03:24 16 29 19.8
002F8EA8 2019-04-20 08:28:26 16 29 19.8
002F8EA8 2019-04-20 07:53:28 16 29 19.8
002F8EA8 2019-04-20 07:18:31 16 28 19.8
002F8EA8 2019-04-20 06:43:33 16 28 19.7
002F8EA8 2019-04-20 06:08:35 16 28 19.7
002F8EA8 2019-04-20 05:33:36 16 28 19.7
002F8EA8 2019-04-20 04:58:39 16 28 19.7
002F8EA8 2019-04-20 04:23:39 16.1 28 19.7
002F8EA8 2019-04-20 03:48:41 16.1 28 19.7
002F8EA8 2019-04-20 03:13:44 16.2 28 19.7
002F8EA8 2019-04-20 02:38:48 16.3 28 19.7
002F8EA8 2019-04-20 02:03:48 16.3 28 19.7
002F8EA8 2019-04-20 01:28:50 16.3 28 19.8
002F8EA8 2019-04-20 00:53:53 16.3 28 19.8
002F8EA8 2019-04-20 00:18:53 16.3 28 19.8
002F8EA8 2019-04-19 23:43:54 16.3 28 17.5
002F8EA8 2019-04-19 21:59:01 16.4 28 17.5
002F8EA8 2019-04-19 21:24:01 16.5 28 12.5
002F8EA8 2019-04-19 20:49:02 16.5 28 12.4
002F8EA8 2019-04-19 19:04:08 16.5 28 12.4
002F8EA8 2019-04-19 18:29:14 16.5 28 12.5
002F8EA8 2019-04-19 17:54:15 16.5 28 12.5
002F8EA8 2019-04-19 17:19:14 16.4 28 12.6
002F8EA8 2019-04-19 15:34:22 16.4 28 12.7
002F8EA8 2019-04-19 14:59:26 16.4 28 12.7
002F8EA8 2019-04-19 14:24:26 16.3 28 12.7
002F8EA8 2019-04-19 13:14:29 16.3 28 12.8
002F8EA8 2019-04-19 12:39:32 16.3 27 13.1
002F8EA8 2019-04-19 12:04:31 16.3 27 13.3
002F8EA8 2019-04-19 11:29:36 16.3 27 13.3
002F8EA8 2019-04-19 09:44:36 16.3 27 13.5
002F8EA8 2019-04-19 09:09:37 16.3 27 14.9
002F8EA8 2019-04-19 08:34:38 16.3 27 16.1
002F8EA8 2019-04-19 07:59:40 16.3 27 17.2
002F8EA8 2019-04-19 07:24:43 16.3 27 17.9
002F8EA8 2019-04-19 06:49:45 16.3 27 18.5
002F8EA8 2019-04-19 06:14:47 16.3 27 19
002F8EA8 2019-04-19 05:39:48 16.3 27 19
002F8EA8 2019-04-19 05:04:49 16.4 27 19.5
002F8EA8 2019-04-19 04:29:51 16.4 27 19.8
002F8EA8 2019-04-19 03:54:52 16.5 27 20
002F8EA8 2019-04-19 03:19:53 16.5 27 20.8
002F8EA8 2019-04-19 02:44:56 16.5 27 21.2
002F8EA8 2019-04-19 02:09:58 16.5 27 21.6
002F8EA8 2019-04-19 01:34:57 16.6 27 21.8
002F8EA8 2019-04-19 00:59:59 16.7 27 22.1
002F8EA8 2019-04-19 00:25:00 16.7 27 22.2
002F8EA8 2019-04-18 23:50:00 16.7 27 22.3
002F8EA8 2019-04-18 23:15:02 16.8 27 22.5
002F8EA8 2019-04-18 22:40:04 16.9 27 22.5
002F8EA8 2019-04-18 22:05:04 16.9 27 22.6
002F8EA8 2019-04-18 21:30:06 16.9 27 22.6
002F8EA8 2019-04-18 20:55:07 16.9 27 22.6
002F8EA8 2019-04-18 20:20:09 16.9 27 22.6
002F8EA8 2019-04-18 19:45:09 16.9 27 22.6
002F8EA8 2019-04-18 19:10:10 16.9 27 22.6
002F8EA8 2019-04-18 18:35:11 16.9 26 22.4
002F8EA8 2019-04-18 18:00:12 16.9 26 22.1
002F8EA8 2019-04-18 17:25:12 16.9 26 21.8
002F8EA8 2019-04-18 16:50:14 16.8 26 21.5
002F8EA8 2019-04-18 16:15:16 16.7 26 21.2
002F8EA8 2019-04-18 15:40:18 16.7 26 20.9
002F8EA8 2019-04-18 15:05:21 16.7 26 20.9
002F8EA8 2019-04-18 14:30:24 16.7 26 20.6
002F8EA8 2019-04-18 13:55:26 16.5 26 20.7
002F8EA8 2019-04-18 13:20:27 16.5 26 20.8
002F8EA8 2019-04-18 12:45:31 16.5 26 20.3
002F8EA8 2019-04-18 12:10:34 16.5 26 20.1
002F8EA8 2019-04-18 11:35:35 16.5 26 20.1
002F8EA8 2019-04-18 11:00:38 16.6 26 19.8
002F8EA8 2019-04-18 10:25:41 16.5 26 19.8
002F8EA8 2019-04-18 09:50:43 16.5 26 19.8
002F8EA8 2019-04-18 09:15:44 16.5 26 19.9
002F8EA8 2019-04-18 08:40:46 16.6 26 20.1
002F8EA8 2019-04-18 08:05:47 16.5 26 20.3
002F8EA8 2019-04-18 07:30:48 16.5 26 20.3
002F8EA8 2019-04-18 06:55:49 16.5 26 20.5
002F8EA8 2019-04-18 06:20:52 16.5 25 20.8
002F8EA8 2019-04-18 05:45:53 16.5 25 21.5
002F8EA8 2019-04-18 05:10:55 16.5 25 21.9
002F8EA8 2019-04-18 04:35:57 16.5 25 21.9
002F8EA8 2019-04-18 04:00:58 16.6 25 22
002F8EA8 2019-04-18 03:26:00 16.7 25 22
002F8EA8 2019-04-18 02:51:01 16.7 25 22
002F8EA8 2019-04-18 02:16:03 16.8 25 22.2
002F8EA8 2019-04-18 01:41:04 16.9 25 22.2
002F8EA8 2019-04-18 01:06:06 16.9 25 22.3
002F8EA8 2019-04-18 00:31:07 17 25 22.3
002F8EA8 2019-04-17 23:56:10 17.1 25 22.4
002F8EA8 2019-04-17 23:21:12 17.1 25 22.2
002F8EA8 2019-04-17 22:46:14 17.1 25 22
002F8EA8 2019-04-17 22:11:15 17.1 25 21.9
002F8EA8 2019-04-17 21:36:16 17.1 25 21.7
002F8EA8 2019-04-17 21:01:17 17.1 25 21.5
002F8EA8 2019-04-17 20:26:19 17.1 25 22.5
002F8EA8 2019-04-17 19:51:19 17.1 25 22.4
002F8EA8 2019-04-17 19:16:21 17.1 25 22.4
002F8EA8 2019-04-17 18:41:23 17.1 24 22.3
002F8EA8 2019-04-17 18:06:26 17.1 24 23
002F8EA8 2019-04-17 17:31:29 17.1 24 23
002F8EA8 2019-04-17 16:56:30 17.1 24 22.9
002F8EA8 2019-04-17 16:21:32 17.1 24 23
002F8EA8 2019-04-17 15:46:34 17.1 24 23
002F8EA8 2019-04-17 15:11:36 17.3 24 22.6
002F8EA8 2019-04-17 14:36:38 17.3 24 22.4
002F8EA8 2019-04-17 14:01:40 17.3 24 22.4
002F8EA8 2019-04-17 12:51:43 17.5 24 22.4
002F8EA8 2019-04-17 12:16:45 17.5 24 22.3
002F8EA8 2019-04-17 11:41:45 17.4 24 22.3
002F8EA8 2019-04-17 11:06:48 17.4 24 22.2
002F8EA8 2019-04-17 10:31:50 17.3 24 22.1
002F8EA8 2019-04-17 09:56:53 17.4 24 22.1
002F8EA8 2019-04-17 09:21:55 17.5 23 22.1
002F8EA8 2019-04-17 08:46:57 17.5 23 22
002F8EA8 2019-04-17 08:11:59 17.8 23 22.1
002F8EA8 2019-04-17 07:37:01 17.9 23 23
002F8EA8 2019-04-17 07:02:02 18 23 23.2
002F8EA8 2019-04-17 06:27:03 18 23 23.2
002F8EA8 2019-04-17 05:52:04 18.2 23 23.3
002F8EA8 2019-04-17 05:17:05 18.2 23 22.4
002F8EA8 2019-04-17 04:42:05 18.2 23 22.3
002F8EA8 2019-04-17 04:07:06 18.3 23 22.2
002F8EA8 2019-04-17 03:32:08 18.4 23 23.1
002F8EA8 2019-04-17 02:57:10 18.4 23 22.2
002F8EA8 2019-04-17 02:22:11 18.6 23 22.1
002F8EA8 2019-04-17 01:47:13 18.6 23 22
002F8EA8 2019-04-17 01:12:14 18.6 23 21.8
002F8EA8 2019-04-17 00:37:16 18.6 22 21.6
002F8EA8 2019-04-17 00:02:17 18.6 22 21.4
002F8EA8 2019-04-16 23:27:19 18.6 22 21.3
002F8EA8 2019-04-16 22:52:20 18.8 22 21.1
002F8EA8 2019-04-16 22:17:22 19 22 21.1
002F8EA8 2019-04-16 21:42:24 19.2 22 21.1
002F8EA8 2019-04-16 21:07:27 19.5 22 21.1
002F8EA8 2019-04-16 20:32:30 19.5 22 21.1
002F8EA8 2019-04-16 19:57:31 19.5 22 21.1
002F8EA8 2019-04-16 19:22:34 19.7 22 21.1
002F8EA8 2019-04-16 18:47:36 19.7 22 21.1
002F8EA8 2019-04-16 18:12:40 19.9 22 21
002F8EA8 2019-04-16 17:02:41 20.1 21 20.9
002F8EA8 2019-04-16 16:27:42 20.3 21 19.2
002F8EA8 2019-04-16 15:52:44 20.5 21 18.7
002F8EA8 2019-04-16 15:17:44 20.7 21 18.3
002F8EA8 2019-04-16 14:42:45 21.1 21 17.8
002F8EA8 2019-04-16 13:32:47 21.4 22 17.8
002F8EA8 2019-04-16 12:57:49 21.4 21 17.8
002F8EA8 2019-04-16 12:22:48 21.4 21 17.6
002F8EA8 2019-04-16 11:47:49 21.3 21 12.5
002F8EA8 2019-04-16 11:12:49 21.2 22 11.6
002F8EA8 2019-04-16 10:37:52 21.2 21 11.7
002F8EA8 2019-04-16 10:02:51 21.2 21 11.7
002F8EA8 2019-04-16 08:52:54 21.2 21 11.9
002F8EA8 2019-04-16 07:42:55 21.2 21 11.9
002F8EA8 2019-04-16 07:07:59 21.2 21 11.8
002F8EA8 2019-04-16 06:33:00 21.2 21 12.1
002F8EA8 2019-04-16 05:57:56 21.2 21 12
002F8EA8 2019-04-16 05:23:00 21.2 21 11.9
002F8EA8 2019-04-16 04:47:59 21.3 21 11.7
002F8EA8 2019-04-16 04:13:02 21.4 21 11.6
002F8EA8 2019-04-16 03:38:02 21.3 21 11.9
002F8EA8 2019-04-16 03:03:02 21.3 21 14.8
002F8EA8 2019-04-16 02:28:06 21.4 21 16
002F8EA8 2019-04-16 01:53:05 21.4 21 16.6
002F8EA8 2019-04-16 01:18:08 21.4 21 17.9
002F8EA8 2019-04-16 00:43:10 21.4 21 18.7
002F8EA8 2019-04-16 00:08:07 21.4 21 19.3
002F8EA8 2019-04-15 23:33:11 21.4 20 20.2
002F8EA8 2019-04-15 22:58:08 21.4 20 20.6
002F8EA8 2019-04-15 22:23:12 21.4 20 21.2
002F8EA8 2019-04-15 21:48:11 21.4 20 21.7
002F8EA8 2019-04-15 21:13:11 21.4 20 22.1
002F8EA8 2019-04-15 20:38:11 21.4 20 22.4
002F8EA8 2019-04-15 20:03:13 21.5 20 22.7
002F8EA8 2019-04-15 19:28:12 21.6 20 23
002F8EA8 2019-04-15 18:53:14 21.6 20 23.2
002F8EA8 2019-04-15 18:18:18 21.6 19 23.4
002F8EA8 2019-04-15 17:43:16 21.7 19 23.7
002F8EA8 2019-04-15 17:08:19 21.8 19 23.9
002F8EA8 2019-04-15 16:33:18 21.8 19 24.1
002F8EA8 2019-04-15 15:58:23 22 19 24.2
002F8EA8 2019-04-15 15:23:22 22 19 24.4
002F8EA8 2019-04-15 14:13:21 22.2 18 24.7
002F8EA8 2019-04-15 13:38:21 22.5 18 24.9
002F8EA8 2019-04-15 13:03:24 22.5 17 25.1
002F8EA8 2019-04-15 12:28:22 22.7 17 25.3
002F8EA8 2019-04-15 11:53:22 22.7 15 25.3
002F8EA8 2019-04-15 11:18:21 22.6 16 25.4
002F8EA8 2019-04-15 10:43:22 22.5 16 25.4
002F8EA8 2019-04-15 10:08:22 22.5 16 25.4
002F8EA8 2019-04-15 09:33:23 22.5 17 25.4
002F8EA8 2019-04-15 08:58:24 22.3 16 25.5
002F8EA8 2019-04-15 08:23:25 22.2 16 25.3
002F8EA8 2019-04-15 07:48:25 22.2 16 25.3
002F8EA8 2019-04-15 07:13:24 22.2 17 25.2
002F8EA8 2019-04-15 06:38:25 22 17 25.1
002F8EA8 2019-04-15 06:03:25 22 17 25
002F8EA8 2019-04-15 05:28:25 22 17 25.1
002F8EA8 2019-04-15 04:53:25 22 17 25.2
002F8EA8 2019-04-15 04:18:26 22 17 25.5
002F8EA8 2019-04-15 03:43:26 22 17 25.9
002F8EA8 2019-04-15 03:08:27 22 17 25.9
002F8EA8 2019-04-15 02:33:28 22 17 25.9
002F8EA8 2019-04-15 01:58:28 22 17 26
002F8EA8 2019-04-15 01:23:28 22 17 26
002F8EA8 2019-04-15 00:48:28 22 17 26
002F8EA8 2019-04-15 00:13:28 22 17 26
002F8EA8 2019-04-14 23:38:28 22 17 25.9
002F8EA8 2019-04-14 23:03:27 22 17 26.2
002F8EA8 2019-04-14 22:28:25 22 17 26.2
002F8EA8 2019-04-14 21:53:25 22.2 18 26.1
002F8EA8 2019-04-14 21:18:24 22.2 18 26.1
002F8EA8 2019-04-14 20:43:24 22.2 18 26
002F8EA8 2019-04-14 20:08:23 22.2 18 26.1
002F8EA8 2019-04-14 19:33:23 22.3 18 26
002F8EA8 2019-04-14 18:58:21 22.3 18 26
002F8EA8 2019-04-14 18:23:20 22.3 18 26.3
002F8EA8 2019-04-14 17:48:19 22.2 17 26.3
002F8EA8 2019-04-14 17:13:18 22.2 17 26.4
002F8EA8 2019-04-14 16:38:18 22.2 17 26.4
002F8EA8 2019-04-14 16:03:18 22.2 18 26.4
002F8EA8 2019-04-14 15:28:18 22.2 18 26.5
002F8EA8 2019-04-14 14:53:19 22.2 18 26.4
002F8EA8 2019-04-14 14:18:20 22.2 18 26.4
002F8EA8 2019-04-14 13:43:21 22.2 18 26.4
002F8EA8 2019-04-14 13:08:21 22.2 18 26.1
002F8EA8 2019-04-14 12:33:21 22.2 18 26.1
002F8EA8 2019-04-14 11:58:21 22.2 18 26
002F8EA8 2019-04-14 11:23:20 22.2 18 26
002F8EA8 2019-04-14 10:48:21 22.2 18 26.1
002F8EA8 2019-04-14 10:13:21 22.2 18 26.2
002F8EA8 2019-04-14 09:38:22 22.2 18 26.2
002F8EA8 2019-04-14 09:03:24 22.2 18 26.1
002F8EA8 2019-04-14 08:28:25 22.2 18 25.8
002F8EA8 2019-04-14 07:53:26 22.2 18 25.8
002F8EA8 2019-04-14 07:18:27 22.2 18 25.8
002F8EA8 2019-04-14 06:43:28 22.2 17 25.8
002F8EA8 2019-04-14 06:08:30 22 17 25.9
002F8EA8 2019-04-14 05:33:30 22.1 17 25.9
002F8EA8 2019-04-14 04:58:32 22 17 26
002F8EA8 2019-04-14 04:23:32 22 17 25.9
002F8EA8 2019-04-14 03:48:33 22.2 17 25.7
002F8EA8 2019-04-14 03:13:33 22.2 17 25.6
002F8EA8 2019-04-14 02:38:33 22.2 18 25.6
002F8EA8 2019-04-14 02:03:33 22.2 18 25.7
002F8EA8 2019-04-14 01:28:33 22.2 18 25.7
002F8EA8 2019-04-14 00:53:33 22.2 18 25.6
002F8EA8 2019-04-14 00:18:33 22.2 17 25.5
002F8EA8 2019-04-13 23:43:34 22.2 17 25.4
002F8EA8 2019-04-13 23:08:34 22.2 17 25
002F8EA8 2019-04-13 22:33:34 22.2 17 25.1
002F8EA8 2019-04-13 21:58:33 22.2 17 25.1
002F8EA8 2019-04-13 21:23:32 22.2 17 25.2
002F8EA8 2019-04-13 20:48:32 22.3 17 25
002F8EA8 2019-04-13 20:13:32 22.4 17 25
002F8EA8 2019-04-13 19:38:32 22.4 17 24.9
002F8EA8 2019-04-13 19:03:31 22.5 17 24.9
002F8EA8 2019-04-13 18:28:30 22.5 17 24.9
002F8EA8 2019-04-13 17:53:29 22.5 17 24.8
002F8EA8 2019-04-13 17:18:30 22.5 17 24.8
002F8EA8 2019-04-13 16:43:30 22.5 17 24.7
002F8EA8 2019-04-13 16:08:29 22.5 17 24.7
002F8EA8 2019-04-13 15:33:28 22.5 17 24.7
002F8EA8 2019-04-13 14:58:27 22.6 17 24.6
002F8EA8 2019-04-13 14:23:26 22.7 17 24.6
002F8EA8 2019-04-13 13:48:25 22.7 17 24.6
002F8EA8 2019-04-13 13:13:25 22.7 17 24.5
002F8EA8 2019-04-13 12:38:24 22.7 17 24.6
002F8EA8 2019-04-13 12:03:23 22.7 17 24.6
002F8EA8 2019-04-13 11:28:22 22.7 17 24.6
002F8EA8 2019-04-13 10:53:19 22.7 17 24.6
002F8EA8 2019-04-13 10:18:18 22.6 17 24.8
002F8EA8 2019-04-13 09:43:16 22.5 17 24.9
002F8EA8 2019-04-13 09:08:14 22.6 17 24.9
002F8EA8 2019-04-13 08:33:11 22.7 17 25.1
002F8EA8 2019-04-13 07:58:10 22.5 17 25.4
002F8EA8 2019-04-13 07:23:08 22.6 17 25.5
002F8EA8 2019-04-13 06:48:06 22.6 17 25.4
002F8EA8 2019-04-13 06:13:06 22.5 17 25.4
002F8EA8 2019-04-13 05:38:04 22.6 17 25.7
002F8EA8 2019-04-13 05:03:03 22.6 17 26.1
002F8EA8 2019-04-13 04:28:04 22.5 17 26.4
002F8EA8 2019-04-13 03:53:03 22.6 17 26.7
002F8EA8 2019-04-13 03:18:03 22.7 17 26.6
002F8EA8 2019-04-13 02:43:03 22.7 17 26.7
002F8EA8 2019-04-13 02:08:03 22.7 17 26.8
002F8EA8 2019-04-13 01:33:03 22.7 17 26.9
002F8EA8 2019-04-13 00:58:02 22.7 17 26.9
002F8EA8 2019-04-13 00:23:00 22.8 17 27
002F8EA8 2019-04-12 23:48:00 22.9 17 27
002F8EA8 2019-04-12 23:12:59 22.9 18 27.1
002F8EA8 2019-04-12 22:37:59 22.9 18 27.2
002F8EA8 2019-04-12 22:02:58 22.9 18 27.4
002F8EA8 2019-04-12 21:27:57 22.9 18 27.5
002F8EA8 2019-04-12 20:52:55 23.1 18 27.6
002F8EA8 2019-04-12 20:17:53 23.1 17 27.8
002F8EA8 2019-04-12 19:42:52 23.1 17 27.8
002F8EA8 2019-04-12 19:07:50 23.1 17 27.9
002F8EA8 2019-04-12 18:32:47 23.1 16 28.1
002F8EA8 2019-04-12 17:57:46 23.3 16 28.1
002F8EA8 2019-04-12 17:22:44 23.3 16 27.8
002F8EA8 2019-04-12 16:47:42 23.4 16 28.1
002F8EA8 2019-04-12 16:12:40 23.4 17 28.5
002F8EA8 2019-04-12 15:37:38 23.3 17 29.1
002F8EA8 2019-04-12 15:02:35 23.3 17 28.8
002F8EA8 2019-04-12 14:27:33 23.1 18 28.3
002F8EA8 2019-04-12 13:52:30 22.9 18 27.1
002F8EA8 2019-04-12 13:17:28 22 21 13.6